Location: Grandview
(34.8900°N, 117.1058°W)
Time: 20:25:08
(UTC-08:00)

Vanguard 3 - Visible Passes

Search period start: 14 December 2017 00:00
Search period end: 24 December 2017 00:00
Orbit: 509 x 3263 km, 33.3° (Epoch: 14 December)

Date Brightness Start Highest point End Pass type
(mag) Time Alt. Az. Time Alt. Az. Time Alt. Az.
14 Dec 10.0 18:16:20 10° SW 18:19:07 14° SSW 18:22:34 10° S visible
15 Dec 9.4 17:02:10 10° WSW 17:05:22 20° SSW 17:09:33 10° SSE visible
20 Dec 11.3 06:25:42 10° S 06:33:19 17° SSE 06:39:03 10° ESE visible
21 Dec 11.6 05:14:39 10° SSE 05:18:14 11° SSE 05:21:26 10° SE visible
22 Dec 11.1 06:07:06 10° SSW 06:17:32 23° SSE 06:24:49 10° ESE visible
23 Dec 11.5 04:53:56 10° S 05:02:19 16° SSE 05:09:00 10° ESE visible
